Regional Weather Roundup
Issued by NWS Northern Indiana

Home | Current Version | Previous Version | Graphics & Text | Print | Product List | Glossary On
Versions: 1 2 3 4 5 6 7 8 9 10 11 12 13 14 15 16 17 18 19 20 21 22 23 24 25 26 27 28 29 30 31 32 33 34 35 36 37 38 39 40 41 42 43 44 45 46 47 48 49 50
000
ASUS43 KIWX 270810
RWRIWX

KIWX WEATHER ROUNDUP
NATIONAL WEATHER SERVICE NORTHERN INDIANA
300 AM EST THU NOV 27 2014

NOTE: "FAIR" INDICATES FEW OR NO CLOUDS BELOW 12,000 FEET WITH NO
SIGNIFICANT WEATHER AND/OR OBSTRUCTIONS TO VISIBILITY.

* THESE STATIONS ARE NOT UNDER NWS QUALITY CONTROL. THEY ALSO MAY NOT
  REPORT WEATHER SUCH AS PRECIPITATION OR FOG.

INZ001>027-270900-
NORTHERN INDIANA

CITY           SKY/WX    TMP DP  RH WIND       PRES   REMARKS
GARY*          LGT SNOW  31  25  80 W9        30.20R WCI  22
VALPARAISO     MIX PCPN  27  24  89 W14       30.17S WCI  16
MICHIGAN CITY* FLURRIES  28  21  74 CALM      30.18R
LAPORTE*       FLURRIES  29  24  81 W3        30.17R
KNOX*          CLOUDY    27  22  82 W5        30.17R WCI  21
SOUTH BEND     FLURRIES  28  22  78 NW5       30.17R WCI  23
GOSHEN         CLOUDY    27  22  81 NW6       30.14R WCI  20
MONTICELLO*    CLOUDY    23  21  91 NW3       30.17S
LOGANSPORT*    MOCLDY    27  19  74 NW6       30.17R WCI  20
ROCHESTER*     CLOUDY    30  23  74 NW5       30.16S WCI  25
WARSAW*        CLOUDY    28  23  80 NW6       30.15R WCI  22
ANGOLA*        CLOUDY    27  16  63 NW6       30.12R WCI  20
FORT WAYNE     CLOUDY    29  23  78 N8        30.14R WCI  21
HUNTINGTON*    CLOUDY    28  23  82 NW5       30.14R WCI  23
PERU/GRISSOM   MOCLDY    26  23  88 NW8       30.14S WCI  18
MARION*          N/A     28  21  76 N6        30.14S WCI  21

$$
INZ028>050-270900-
CENTRAL INDIANA

CITY           SKY/WX    TMP DP  RH WIND       PRES   REMARKS
LAFAYETTE      PTCLDY    23  19  85 NW7       30.19R WCI  15
KOKOMO*        CLOUDY    28  19  69 N8        30.14S WCI  20
MUNCIE*        CLOUDY    28  22  78 N10       30.12R WCI  19
INDIANAPOLIS   FLURRIES  28  21  75 N9        30.14R WCI  19

$$
MIZ043>046-050>051-056>058-064>065-071>073-077>080-270900-
SOUTHWEST LOWER MICHIGAN

CITY           SKY/WX    TMP DP  RH WIND       PRES   REMARKS
BATTLE CREEK   CLOUDY    30  19  63 N5        30.13R WCI  25
BENTON HARBOR  LGT SNOW  27  24  89 CALM      30.16S FOG
COLDWATER*     CLOUDY    29  25  82 NW5       30.12R WCI  24
HILLSDALE*     FLURRIES  28  25  89 NW6       30.09R WCI  21
HOLLAND        CLOUDY    31  23  72 CALM      30.16R
GRAND RAPIDS   CLOUDY    29  22  75 NW6       30.15R WCI  23
KALAMAZOO      CLOUDY    29  21  72 NW5       30.14R WCI  24
STURGIS*       CLOUDY    27  23  86 NW3       30.13R
THREE RIVERS*  CLOUDY    29  24  80 NW3       30.15R

$$
OHZ001>008-015>018-024>025-270900-
NORTHWEST OHIO

CITY           SKY/WX    TMP DP  RH WIND       PRES   REMARKS
WAUSEON*       CLOUDY    30  25  80 N9        30.10R WCI  22
DEFIANCE       CLOUDY    30  24  78 NW7       30.12R WCI  23
FINDLAY        CLOUDY    31  26  82 NW5       30.07R WCI  26
TOLEDO EXPRESS CLOUDY    29  24  82 NW6       30.09R WCI  23
TOLEDO METCALF CLOUDY    31  24  75 NW9       30.09S WCI  23
LIMA           CLOUDY    31  25  78 N6        30.07S WCI  25

$$
AND FOR LAKE MICHIGAN COASTAL AND OPEN LAKE BUOY OBSERVATIONS

STATION/POSITION TEMP    WIND        PRES    VSBY  WAVE
                 AIR SEA DIR/SP/G                  HT/PER
                 (F)     (DEG/KT/KT) (MB)    (MI)  (FT/S)
CALUMET HARBOR    28     280/  7/ 12 1021.2R
MICHIGAN CITY     28     170/  7/  8   N/A
SAINT JOSEPH      29     110/  1/  2 1022.0S
SOUTH LAKE BUOY   32 42  320/ 17/ 21 1022.3R         4/ 6

$$
&&


USA.gov is the U.S. government's official web portal to all federal, state and local government web resources and services.